Terminal Aerodrome Forecast
Issued by NWS Boston, MA

Home | Current Version | Previous Version | Text Only | Print | Product List | Glossary On
Versions: 1 2 3 4 5 6 7 8 9 10 11 12 13 14 15 16 17 18 19 20 21 22 23
000
FTUS41 KBOX 192333 AAB
TAFBDL
TAF AMD
KBDL 192333Z 2000/2106 26006KT P6SM FEW200
     FM200300 VRB03KT P6SM BKN050
     FM200400 00000KT 5SM -TSRA BR BKN050CB
     FM200700 00000KT P6SM SCT250
     FM201500 31010KT P6SM FEW250
     FM202200 30006KT P6SM FEW250=

USA.gov is the U.S. government's official web portal to all federal, state and local government web resources and services.